| time (UTC) | temp F | wind direction | speed MPH | gust MPH | rain 1hr in | rain 24hr in | rain mn in | humidity % | barometer mb |
| 20260902081604 | 84 | 0 | 0.0 | 0.0 | 0.00 | 0.04 | 0.04 | 72 | 1016.5 |
| 20260902074604 | 82 | 0 | 0.0 | 0.0 | 0.00 | 0.04 | 0.04 | 76 | 1016.5 |
| 20260902074104 | 82 | 0 | 0.0 | 0.0 | 0.00 | 0.04 | 0.04 | 76 | 1016.5 |
| 20260902064104 | 79 | 38 | 0.0 | 0.0 | 0.00 | 0.04 | 0.04 | 82 | 1016.3 |
| 20260902054604 | 77 | 32 | 0.0 | 0.0 | 0.01 | 0.04 | 0.04 | 85 | 1016.2 |
| 20260902054104 | 77 | 30 | 0.0 | 0.0 | 0.01 | 0.04 | 0.04 | 85 | 1016.2 |
| 20260902053604 | 77 | 30 | 0.0 | 0.0 | 0.00 | 0.03 | 0.03 | 85 | 1016.4 |
| 20260902053104 | 76 | 30 | 0.0 | 0.0 | 0.00 | 0.03 | 0.03 | 86 | 1016.4 |
| 20260902051104 | 76 | 30 | 0.0 | 0.0 | 0.00 | 0.03 | 0.03 | 85 | 1015.9 |
| 20260902044104 | 75 | 42 | 0.0 | 0.0 | 0.01 | 0.03 | 0.03 | 85 | 1015.9 |
| 20260902043104 | 75 | 27 | 0.0 | 0.0 | 0.01 | 0.03 | 0.03 | 85 | 1015.9 |
| 20260902040104 | 75 | 63 | 0.0 | 0.0 | 0.00 | 0.02 | 0.02 | 85 | 1015.8 |
| 20260902034604 | 75 | 63 | 0.0 | 0.0 | 0.00 | 0.02 | 0.02 | 84 | 1015.7 |
| 20260902034104 | 75 | 64 | 0.0 | 0.0 | 0.00 | 0.02 | 0.02 | 83 | 1015.6 |
| 20260902031604 | 75 | 0 | 0.0 | 0.0 | 0.01 | 0.02 | 0.02 | 82 | 1015.5 |
| 20260902030605 | 76 | 13 | 0.0 | 0.0 | 0.01 | 0.02 | 0.02 | 82 | 1015.5 |
| 20260902030105 | 76 | 0 | 0.0 | 0.0 | 0.02 | 0.02 | 0.02 | 81 | 1015.5 |
| 20260902023604 | 76 | 0 | 0.0 | 0.0 | 0.02 | 0.02 | 0.02 | 80 | 1015.5 |
| 20260902021604 | 77 | 0 | 0.0 | 0.0 | 0.02 | 0.02 | 0.02 | 78 | 1015.5 |
| 20260902020604 | 77 | 0 | 0.0 | 0.0 | 0.02 | 0.02 | 0.02 | 77 | 1015.5 |
| 20260902020105 | 78 | 0 | 0.0 | 0.0 | 0.01 | 0.01 | 0.01 | 77 | 1015.5 |
| 20260902011104 | 80 | 28 | 0.0 | 0.0 | 0.00 | 0.00 | 0.00 | 74 | 1015.4 |
| 20260902010604 | 80 | 24 | 0.0 | 0.0 | 0.00 | 0.00 | 0.00 | 74 | 1015.4 |
| 20260902004604 | 80 | 346 | 0.0 | 0.0 | 0.00 | 0.00 | 0.00 | 78 | 1015.4 |
| 20260902003604 | 80 | 0 | 0.0 | 0.0 | 0.00 | 0.00 | 0.00 | 79 | 1015.4 |
| 20260902001604 | 80 | 0 | 0.0 | 0.0 | 0.00 | 0.00 | 0.00 | 77 | 1015.0 |
| 20260902001104 | 80 | 298 | 0.0 | 0.0 | 0.00 | 0.00 | 0.00 | 76 | 1015.0 |
| 20260902000604 | 80 | 0 | 0.0 | 0.0 | 0.00 | 0.00 | 0.00 | 76 | 1015.0 |
| 20260902000105 | 80 | 0 | 0.0 | 0.0 | 0.00 | 0.00 | 0.00 | 76 | 1015.0 |
| 20260901234604 | 80 | 0 | 0.0 | 0.0 | 0.00 | 0.00 | 0.00 | 76 | 1015.0 |
| 20260901231605 | 80 | 355 | 0.0 | 0.0 | 0.00 | 0.00 | 0.00 | 77 | 1015.0 |
| 20260901230604 | 80 | 337 | 0.0 | 0.0 | 0.00 | 0.00 | 0.00 | 77 | 1015.0 |
| 20260901224604 | 79 | 0 | 0.0 | 0.0 | 0.00 | 0.00 | 0.00 | 75 | 1014.9 |
| 20260901223104 | 79 | 0 | 0.0 | 0.0 | 0.00 | 0.00 | 0.00 | 74 | 1015.0 |
| 20260901221104 | 79 | 0 | 0.0 | 0.0 | 0.00 | 0.00 | 0.00 | 74 | 1015.0 |
| 20260901220604 | 79 | 0 | 0.0 | 0.0 | 0.00 | 0.00 | 0.00 | 74 | 1015.0 |
| 20260901214603 | 79 | 0 | 0.0 | 0.0 | 0.00 | 0.00 | 0.00 | 73 | 1014.6 |
| 20260901213604 | 79 | 0 | 0.0 | 0.0 | 0.00 | 0.00 | 0.00 | 73 | 1014.6 |
| 20260901213104 | 80 | 0 | 0.0 | 0.0 | 0.00 | 0.00 | 0.00 | 73 | 1014.6 |
| 20260901211105 | 80 | 0 | 0.0 | 0.0 | 0.00 | 0.00 | 0.00 | 72 | 1014.6 |
| 20260901203604 | 80 | 0 | 0.0 | 0.0 | 0.00 | 0.00 | 0.00 | 73 | 1014.6 |
| 20260901203104 | 80 | 0 | 0.0 | 0.0 | 0.00 | 0.00 | 0.00 | 73 | 1014.7 |
| 20260901201104 | 81 | 0 | 0.0 | 0.0 | 0.00 | 0.00 | 0.00 | 72 | 1014.5 |
| 20260901200604 | 81 | 0 | 0.0 | 0.0 | 0.00 | 0.00 | 0.00 | 72 | 1014.5 |
| 20260901194603 | 81 | 0 | 0.0 | 0.0 | 0.00 | 0.00 | 0.00 | 71 | 1014.5 |
| 20260901194104 | 81 | 0 | 0.0 | 0.0 | 0.00 | 0.00 | 0.00 | 71 | 1014.5 |
| 20260901190105 | 82 | 0 | 0.0 | 0.0 | 0.00 | 0.00 | 0.00 | 70 | 1014.3 |
| 20260901184104 | 82 | 0 | 0.0 | 0.0 | 0.00 | 0.00 | 0.00 | 69 | 1013.8 |
| 20260901181104 | 83 | 0 | 0.0 | 0.0 | 0.00 | 0.00 | 0.00 | 69 | 1013.4 |
| 20260901180604 | 83 | 0 | 0.0 | 0.0 | 0.00 | 0.00 | 0.00 | 69 | 1013.1 |
| 20260901180105 | 83 | 0 | 0.0 | 0.0 | 0.00 | 0.00 | 0.00 | 69 | 1013.1 |
| 20260901173104 | 84 | 0 | 0.0 | 0.0 | 0.00 | 0.00 | 0.00 | 66 | 1012.9 |
| 20260901171604 | 84 | 0 | 0.0 | 0.0 | 0.00 | 0.00 | 0.00 | 66 | 1012.9 |
| 20260901170604 | 85 | 0 | 0.0 | 0.0 | 0.00 | 0.00 | 0.00 | 64 | 1012.9 |
| 20260901163604 | 86 | 0 | 0.0 | 0.0 | 0.00 | 0.00 | 0.00 | 63 | 1012.9 |
| 20260901163104 | 86 | 0 | 0.0 | 0.0 | 0.00 | 0.00 | 0.00 | 63 | 1012.9 |
| 20260901161604 | 87 | 0 | 0.0 | 0.0 | 0.00 | 0.00 | 0.00 | 64 | 1012.9 |
| 20260901161104 | 87 | 0 | 0.0 | 0.0 | 0.00 | 0.00 | 0.00 | 64 | 1012.7 |
| 20260901160105 | 87 | 0 | 0.0 | 0.0 | 0.00 | 0.00 | 0.00 | 64 | 1012.7 |
| 20260901153104 | 88 | 0 | 0.0 | 0.0 | 0.00 | 0.00 | 0.00 | 61 | 1012.7 |
| 20260901151604 | 89 | 0 | 0.0 | 0.0 | 0.00 | 0.00 | 0.00 | 59 | 1012.7 |
| 20260901151104 | 89 | 0 | 0.0 | 0.0 | 0.00 | 0.00 | 0.00 | 58 | 1012.7 |
| 20260901150604 | 89 | 0 | 0.0 | 0.0 | 0.00 | 0.00 | 0.00 | 58 | 1012.7 |
| 20260901140604 | 91 | 0 | 0.0 | 0.0 | 0.00 | 0.00 | 0.00 | 55 | 1012.8 |
| 20260901134604 | 91 | 0 | 0.0 | 0.0 | 0.00 | 0.00 | 0.00 | 54 | 1012.8 |
| 20260901134104 | 92 | 0 | 0.0 | 0.0 | 0.00 | 0.00 | 0.00 | 54 | 1012.8 |
| 20260901133604 | 92 | 0 | 0.0 | 0.0 | 0.00 | 0.00 | 0.00 | 54 | 1013.0 |
| 20260901133104 | 92 | 358 | 0.0 | 0.0 | 0.00 | 0.00 | 0.00 | 55 | 1013.0 |
| 20260901131604 | 92 | 358 | 0.0 | 0.0 | 0.00 | 0.00 | 0.00 | 54 | 1013.4 |
| 20260901130105 | 91 | 0 | 0.0 | 0.0 | 0.00 | 0.00 | 0.00 | 55 | 1013.4 |
| 20260901124604 | 91 | 0 | 0.0 | 0.0 | 0.00 | 0.00 | 0.00 | 54 | 1013.4 |
| 20260901124104 | 91 | 356 | 0.0 | 0.0 | 0.00 | 0.00 | 0.00 | 55 | 1013.4 |
| 20260901123604 | 91 | 0 | 0.0 | 0.0 | 0.00 | 0.00 | 0.00 | 55 | 1013.4 |
| 20260901123104 | 92 | 345 | 0.0 | 0.0 | 0.00 | 0.00 | 0.00 | 55 | 1013.4 |
| 20260901121604 | 91 | 322 | 0.0 | 0.0 | 0.00 | 0.00 | 0.00 | 55 | 1013.7 |
| 20260901114604 | 90 | 0 | 0.0 | 0.0 | 0.00 | 0.00 | 0.00 | 55 | 1013.8 |
| 20260901113604 | 90 | 0 | 0.0 | 0.0 | 0.00 | 0.00 | 0.00 | 58 | 1014.0 |
| 20260901104104 | 87 | 0 | 0.0 | 0.0 | 0.00 | 0.00 | 0.00 | 65 | 1014.3 |
| 20260901100105 | 86 | 0 | 0.0 | 0.0 | 0.00 | 0.00 | 0.00 | 59 | 1014.6 |
| 20260901090105 | 87 | 328 | 0.0 | 0.0 | 0.00 | 0.00 | 0.00 | 58 | 1014.7 |
| 20260901084604 | 86 | 326 | 0.0 | 0.0 | 0.00 | 0.00 | 0.00 | 62 | 1014.7 |
| 20260901084104 | 85 | 352 | 0.0 | 0.0 | 0.00 | 0.00 | 0.00 | 61 | 1014.7 |
| 20260901083604 | 85 | 0 | 0.0 | 0.0 | 0.00 | 0.00 | 0.00 | 62 | 1014.7 |